DW9417 Weather Reports


time (UTC)temp
F
wind
direction
speed
knots
gust
knots
rain 1hr
in
rain 24hr
in
rain mn
in
humidity
%
barometer
mb
20260506013104 57 39 6.1 11.3 0.00 0.00 0.00 73 1031.0
20260506011612 57 40 4.3 9.6 0.00 0.00 0.00 74 1031.0
20260506010055 56 46 5.2 8.7 0.00 0.00 0.00 75 1030.8
20260506004543 55 115 2.6 7.0 0.00 0.00 0.00 78 1030.7
20260506003041 54 73 2.6 7.8 0.00 0.00 0.00 81 1030.6
20260506001537 52 120 2.6 7.0 0.00 0.00 0.00 82 1030.5
20260506000033 51 126 0.9 2.6 0.00 0.00 0.00 84 1030.4
20260505234530 50 121 0.0 5.2 0.00 0.00 0.00 84 1030.2
20260505233028 50 128 2.6 6.1 0.00 0.00 0.00 84 1030.1
20260505231541 48 107 1.7 3.5 0.00 0.00 0.00 86 1029.8
20260505230026 48 100 0.0 1.7 0.00 0.00 0.00 85 1029.7
20260505224521 48 101 0.0 0.9 0.00 0.00 0.00 84 1029.6
20260505223019 48 103 0.0 0.9 0.00 0.00 0.00 83 1029.4
20260505221514 49 103 0.0 2.6 0.00 0.00 0.00 82 1029.1
20260505220010 50 104 0.0 3.5 0.00 0.00 0.00 82 1028.9
20260505214508 49 81 0.9 2.6 0.00 0.00 0.00 82 1028.8
20260505213014 50 105 0.0 2.6 0.00 0.00 0.00 82 1028.8
20260505211509 50 103 0.0 2.6 0.00 0.00 0.00 81 1028.8
20260505210002 50 126 0.0 1.7 0.00 0.00 0.00 81 1028.5
20260505204559 50 127 0.0 3.5 0.00 0.00 0.00 80 1028.4
20260505203120 51 126 0.9 5.2 0.00 0.00 0.00 80 1028.4
20260505201603 51 101 1.7 3.5 0.00 0.00 0.00 79 1028.3
20260505200057 52 96 0.0 0.0 0.00 0.00 0.00 79 1028.2
20260505194553 52 96 0.0 5.2 0.00 0.00 0.00 79 1028.2
20260505193052 53 104 0.9 5.2 0.00 0.00 0.00 79 1028.2
20260505191601 52 115 1.7 6.1 0.00 0.00 0.00 79 1028.1
20260505190049 52 121 1.7 5.2 0.00 0.00 0.00 80 1028.0
20260505184550 52 124 1.7 6.1 0.00 0.00 0.00 80 1028.1
20260505183049 51 99 1.7 5.2 0.00 0.00 0.00 81 1028.1
20260505181548 51 122 0.0 0.0 0.00 0.00 0.00 78 1028.0
20260505180044 52 121 0.0 1.7 0.00 0.00 0.00 77 1028.0
20260505174545 53 123 1.7 7.0 0.00 0.00 0.00 77 1027.9
20260505173041 53 115 3.5 7.0 0.00 0.00 0.00 76 1027.8
20260505171544 53 104 1.7 6.1 0.00 0.00 0.00 76 1028.0
20260505170100 52 109 0.9 3.5 0.00 0.00 0.00 77 1027.9
20260505164541 52 100 0.0 0.0 0.00 0.00 0.00 74 1027.8
20260505163035 53 101 0.0 0.0 0.00 0.00 0.00 72 1027.9
20260505161529 54 114 0.9 5.2 0.00 0.00 0.00 72 1027.8
20260505153024 55 111 5.2 9.6 0.00 0.00 0.00 70 1027.6
20260505151523 55 158 0.9 5.2 0.00 0.00 0.00 70 1027.6
20260505124520 52 144 0.0 0.0 0.00 0.00 0.00 71 1027.0
20260505123018 53 143 0.0 0.0 0.00 0.00 0.00 71 1026.8
20260505121517 53 136 0.0 0.0 0.00 0.00 0.00 69 1026.7
20260505120019 54 143 0.0 0.0 0.00 0.00 0.00 68 1026.6
20260505114519 55 144 0.0 0.0 0.00 0.00 0.00 66 1026.5
20260505113020 56 144 0.0 0.0 0.00 0.00 0.00 65 1026.6
20260505111515 58 146 0.0 0.0 0.00 0.00 0.00 63 1026.3
20260505101518 60 150 0.0 1.7 0.00 0.00 0.00 59 1025.9
20260505100018 63 150 0.9 4.3 0.00 0.00 0.00 55 1025.7
20260505094512 66 150 0.0 1.7 0.00 0.00 0.00 50 1025.6
20260505093025 67 150 0.0 2.6 0.00 0.00 0.00 48 1025.4
20260505091512 68 135 0.9 3.5 0.00 0.00 0.00 47 1025.3
20260505090011 69 115 2.6 6.1 0.00 0.00 0.00 47 1025.2
20260505084510 70 133 1.7 7.0 0.00 0.00 0.00 46 1025.2
20260505083009 70 136 0.0 6.1 0.00 0.00 0.00 45 1025.0
20260505081510 71 137 2.6 7.0 0.00 0.00 0.00 44 1025.0
20260505080009 71 149 3.5 6.1 0.00 0.00 0.00 44 1025.0
20260505074507 71 115 2.6 7.8 0.00 0.00 0.00 44 1024.9
20260505073007 72 106 1.7 5.2 0.00 0.00 0.00 44 1024.9
20260505071506 72 123 0.9 6.1 0.00 0.00 0.00 43 1024.9
20260505070006 72 133 0.0 6.1 0.00 0.00 0.00 44 1024.9
20260505064509 72 134 0.9 5.2 0.00 0.00 0.00 44 1024.9
20260505063002 72 96 0.0 2.6 0.00 0.00 0.00 45 1025.0
20260505061503 71 117 2.6 7.8 0.00 0.00 0.00 44 1025.0
20260505060059 71 65 0.9 5.2 0.00 0.00 0.00 45 1025.0
20260505054559 71 105 0.0 5.2 0.00 0.00 0.00 46 1025.1
20260505053106 70 329 0.9 5.2 0.00 0.00 0.00 48 1025.1
20260505051553 70 208 0.9 3.5 0.00 0.00 0.00 49 1025.1
20260505041541 68 84 0.0 4.3 0.00 0.00 0.00 52 1026.3
20260505040040 67 323 0.9 7.8 0.00 0.00 0.00 53 1026.5
20260505034536 67 63 1.7 5.2 0.00 0.00 0.00 54 1026.8
20260505033059 66 315 1.7 7.0 0.00 0.00 0.00 55 1027.0
20260505031537 66 360 2.6 5.2 0.00 0.00 0.00 56 1027.1
20260505030032 66 51 1.7 5.2 0.00 0.00 0.00 57 1027.1
20260505024529 64 355 2.6 4.3 0.00 0.00 0.00 59 1027.2
20260505023028 64 81 1.7 4.3 0.00 0.00 0.00 60 1027.3
20260505021525 63 32 1.7 4.3 0.00 0.00 0.00 61 1027.5
20260505020021 62 46 1.7 5.2 0.00 0.00 0.00 67 1027.6
20260505014518 61 360 3.5 7.0 0.00 0.00 0.00 68 1027.6